Stations météo

Publicité
Colmar, France (7197): Température de l'air & dewpoint: 11.11.2018 18:00:00 - 17.11.2018 18:00:00 (CET)Colmar, France (7197): Température de l'air 5cm: 11.11.2018 18:00:00 - 17.11.2018 18:00:00 (CET)Colmar, France (7197): Température de l'air -20cm & Température de l'air -100cm: 11.11.2018 18:00:00 - 17.11.2018 18:00:00 (CET)Colmar, France (7197): Vitesse du vent & gusts: 11.11.2018 18:00:00 - 17.11.2018 18:00:00 (CET)Colmar, France (7197): Direction du vent: 11.11.2018 18:00:00 - 17.11.2018 18:00:00 (CET)Colmar, France (7197): reduced air pressure: 11.11.2018 18:00:00 - 17.11.2018 18:00:00 (CET)Colmar, France (7197): visibility: 11.11.2018 18:00:00 - 17.11.2018 18:00:00 (CET)Colmar, France (7197): Ensoleillement: 11.11.2018 18:00:00 - 17.11.2018 18:00:00 (CET)Colmar, France (7197): Quantités de précipitations: 11.11.2018 18:00:00 - 17.11.2018 18:00:00 (CET)
Date & Time tt [°C] td [°C] tt 5cm [°C] tt -20cm [°C] tt -100cm [°C] ff [km/h] ff [knt] fx [km/h] fx [knt] dd ppp [hPa] vv [km] sd [min] rr [mm]
17.11.2018 18:00:00 1,8 -0,5 -0,7 6,8 12,9 4 2 8 5 E 1025,2 18 0 0,0
17.11.2018 17:00:00 4,7 1,0 3,6 6,9 13,0 6 3 17 9 N 1025,1 20 24 0,0
17.11.2018 16:00:00 6,6 1,7 7,4 6,8 13,0 11 6 22 12 N 1025,0 20 60 0,0
17.11.2018 15:00:00 7,0 1,9 8,9 6,6 13,0 12 7 23 12 N 1025,0 20 57 0,0
17.11.2018 14:00:00 6,6 2,1 7,4 6,4 13,0 14 8 23 12 N 1025,3 20 46 0,0
17.11.2018 13:00:00 5,6 1,5 6,1 6,1 13,0 11 6 18 10 N 1025,6 20 25 0,0
17.11.2018 12:00:00 4,6 2,1 4,9 5,9 13,0 9 5 19 10 NNE 1026,2 14 33 0,0
17.11.2018 11:00:00 2,7 1,8 2,0 5,8 13,0 6 3 14 8 NE 1026,8 8 6 0,0
17.11.2018 10:00:00 1,3 0,6 1,1 5,9 13,0 7 4 18 10 NNE 1027,2 6 0 0,0
17.11.2018 09:00:00 0,8 0,4 0,8 6,0 13,1 6 4 14 7 NNE 1027,1 4,2 0 0,0
17.11.2018 08:00:00 0,7 0,3 0,4 6,1 13,0 5 3 10 6 NNE 1027,0 4,1 0 0,0
17.11.2018 07:00:00 0,5 0,1 -0,5 6,3 13,1 5 3 13 7 NNE 1026,5 4,1 0 0,0
17.11.2018 06:00:00 0,2 -0,4 -0,7 6,5 13,1 9 5 12 7 N 1026,5 5 0 0,0
17.11.2018 05:00:00 0,6 -0,1 -0,7 6,7 13,1 8 4 12 6 N 1026,8 5 0 0,0
17.11.2018 04:00:00 0,4 -0,3 -1,8 7,0 13,1 6 3 10 6 NNE 1027,0 6 0 0,0
17.11.2018 03:00:00 1,1 0,1 -0,2 7,2 13,1 6 4 14 7 N 1026,9 8 0 0,0
17.11.2018 02:00:00 0,6 0,3 -2,8 7,6 13,1 8 4 12 7 NNE 1026,9 8 0 0,0
17.11.2018 01:00:00 0,8 -0,7 -1,6 7,8 13,1 4 2 10 6 NNE 1026,9 6 0 0,0
17.11.2018 00:00:00 2,0 0,4 1,3 8,1 13,2 8 5 14 8 N 1026,9 10 0 0,0
16.11.2018 23:00:00 2,0 0,8 1,3 8,2 13,1 7 4 13 7 N 1027,0 11 0 0,0
16.11.2018 22:00:00 4,8 2,8 4,5 8,4 13,2 6 3 10 5 N 1026,9 16 0 0,0
16.11.2018 21:00:00 6,0 3,7 5,6 8,4 13,2 4 2 10 5 NE 1026,9 15 0 0,0
16.11.2018 20:00:00 6,2 3,7 5,9 8,5 13,2 4 2 8 5 NE 1027,0 19 0 0,0
16.11.2018 19:00:00 6,0 3,8 5,7 8,5 13,2 5 3 11 6 NNE 1027,2 20 0 0,0
16.11.2018 18:00:00 6,0 3,7 5,8 8,6 13,2 8 5 16 8 N 1027,2 20 0 0,0
16.11.2018 17:00:00 6,0 3,8 5,9 8,6 13,2 8 5 12 7 NNW 1027,1 20 0 0,0
16.11.2018 16:00:00 6,1 4,3 6,1 8,7 13,2 6 3 13 7 N 1027,2 20 0 0,0
16.11.2018 15:00:00 6,1 3,8 6,0 8,6 13,2 7 4 13 7 N 1027,3 20 0 0,0
16.11.2018 14:00:00 5,8 4,3 5,7 8,6 13,2 5 3 11 6 NNE 1027,7 20 0 0,0
16.11.2018 13:00:00 5,6 4,7 5,5 8,6 13,2 4 2 10 5 N 1027,8 12 0 0,0
16.11.2018 12:00:00 5,5 4,5 5,3 8,6 13,2 4 2 9 5 N 1028,4 11 0 0,0
16.11.2018 11:00:00 5,2 4,3 5,0 8,6 13,2 3 1 5 3 NNW 1028,7 11 0 0,0
16.11.2018 10:00:00 5,0 4,0 5,0 8,7 13,2 2 1 10 5 N 1028,6 13 0 0,0
16.11.2018 09:00:00 4,9 4,2 4,7 8,8 13,2 4 2 10 5 NE 1028,5 20 0 0,0
16.11.2018 08:00:00 4,7 4,3 4,7 8,8 13,3 6 4 11 6 NNE 1028,1 8 0 0,0
16.11.2018 07:00:00 5,0 4,7 4,9 8,9 13,2 6 3 12 6 ENE 1027,4 13 0 0,0
16.11.2018 06:00:00 5,1 4,8 5,1 9,0 13,3 5 3 10 6 NNE 1027,5 7 0 0,0
16.11.2018 05:00:00 5,4 5,1 5,4 9,1 13,3 4 2 8 5 ENE 1027,5 8 0 0,0
16.11.2018 04:00:00 5,5 5,2 5,6 9,1 13,3 6 3 10 5 ENE 1027,5 4,9 0 0,0
16.11.2018 03:00:00 5,8 5,5 5,8 9,2 13,3 6 3 11 6 ENE 1027,4 3,6 0 0,2
16.11.2018 02:00:00 6,0 5,7 6,0 9,3 13,3 0 0 9 5 N 1027,6 4,7 0 0,0
16.11.2018 01:00:00 6,1 5,8 6,1 9,4 13,3 6 3 9 5 ENE 1027,6 6 0 0,0
16.11.2018 00:00:00 6,2 5,9 6,2 9,4 13,3 2 1 9 5 E 1027,6 3,1 0 0,0
15.11.2018 23:00:00 6,3 6,0 6,4 9,5 13,3 4 2 8 4 E 1027,3 2,7 0 0,0
15.11.2018 22:00:00 6,5 6,4 6,5 9,5 13,3 5 3 8 5 E 1027,3 2,4 0 0,0
15.11.2018 21:00:00 6,6 6,5 6,6 9,6 13,3 6 3 10 5 NE 1027,3 1,9 0 0,2
15.11.2018 20:00:00 6,8 6,5 6,7 9,7 13,3 6 4 10 6 ENE 1027,3 1,8 0 0,0
15.11.2018 19:00:00 6,7 6,4 6,8 9,7 13,3 3 2 7 4 E 1027,0 1,6 0 0,0
15.11.2018 18:00:00 7,2 6,8 7,2 9,7 13,3 4 2 8 4 E 1026,8 1,8 0 0,0
15.11.2018 17:00:00 7,4 6,7 7,4 9,7 13,3 5 3 11 6 E 1026,8 4,5 0 0,0
15.11.2018 16:00:00 7,7 6,3 8,1 9,7 13,3 6 4 11 6 ENE 1027,0 10 0 0,0
15.11.2018 15:00:00 8,0 6,5 8,7 9,7 13,3 5 3 11 6 ENE 1026,8 13 0 0,0
15.11.2018 14:00:00 7,9 6,4 8,5 9,6 13,4 6 3 12 6 ENE 1026,7 11 0 0,0
15.11.2018 13:00:00 7,8 6,4 8,4 9,5 13,4 6 4 10 5 E 1026,9 10 0 0,0
15.11.2018 12:00:00 7,7 6,5 8,5 9,4 13,4 6 3 11 6 E 1027,2 10 0 0,0
15.11.2018 11:00:00 7,6 6,4 7,9 9,3 13,4 6 3 10 5 ESE 1027,5 9 0 0,0
15.11.2018 10:00:00 6,9 6,2 7,0 9,2 13,4 2 1 5 3 S 1027,7 10 0 0,0
15.11.2018 09:00:00 6,5 6,2 6,4 9,3 13,4 0 0 7 4 N 1027,9 6 0 0,0
15.11.2018 08:00:00 6,2 6,1 6,1 9,4 13,4 4 2 9 5 WSW 1028,0 9 0 0,0
15.11.2018 07:00:00 6,1 6,0 6,1 9,4 13,4 2 1 4 2 NW 1027,9 0,4 0 0,0
15.11.2018 06:00:00 6,2 5,9 6,2 9,5 13,4 3 2 8 4 NNE 1027,7 1,6 0 0,0
15.11.2018 05:00:00 6,5 6,2 6,5 9,5 13,4 2 1 8 4 E 1027,7 4,7 0 0,0
15.11.2018 04:00:00 6,5 6,2 6,5 9,6 13,4 6 4 9 5 E 1027,6 5 0 0,0
15.11.2018 03:00:00 7,2 6,9 7,0 9,6 13,5 5 3 10 5 SSW 1027,5 9 0 0,0
15.11.2018 02:00:00 7,0 6,9 6,8 9,7 13,5 2 1 8 4 SW 1027,6 5 0 0,0
15.11.2018 01:00:00 6,8 6,7 6,7 9,7 13,5 4 2 8 4 S 1027,8 0,8 0 0,0
15.11.2018 00:00:00 6,7 6,6 6,8 9,8 13,5 5 3 10 6 SSE 1028,1 0,8 0 0,0
14.11.2018 23:00:00 6,9 6,8 6,9 9,8 13,5 4 2 6 3 S 1028,5 1,7 0 0,0
14.11.2018 22:00:00 6,9 6,8 6,9 9,8 13,5 3 1 4 2 E 1028,5 0,4 0 0,0
14.11.2018 21:00:00 6,9 6,8 6,9 9,9 13,5 0 0 4 2 N 1028,5 0,5 0 0,2
14.11.2018 20:00:00 6,8 6,7 6,9 10,0 13,5 0 0 3 2 N 1028,6 0,2 0 0,0
14.11.2018 19:00:00 6,9 6,6 6,9 10,0 13,5 0 0 5 3 N 1028,7 0,2 0 0,0
14.11.2018 18:00:00 7,0 6,7 7,2 10,0 13,5 2 1 8 5 E 1028,8 0,2 0 0,0
14.11.2018 17:00:00 7,7 7,3 7,8 9,9 13,5 4 2 9 5 ENE 1028,6 1,3 0 0,0
14.11.2018 16:00:00 8,6 7,4 9,7 9,8 13,5 7 4 11 6 E 1028,6 10 27 0,0
14.11.2018 15:00:00 9,5 7,6 11,8 9,5 13,5 6 3 11 6 NNE 1028,3 18 50 0,0
14.11.2018 14:00:00 9,8 8,1 11,7 9,1 13,5 7 4 13 7 N 1028,3 17 49 0,0
14.11.2018 13:00:00 8,6 8,2 8,8 8,8 13,5 7 4 10 5 NE 1029,0 14 28 0,0
14.11.2018 12:00:00 7,7 7,6 7,2 8,7 13,5 6 3 13 7 SSW 1029,4 9 0 0,0
14.11.2018 11:00:00 6,4 6,3 6,3 8,5 13,5 7 4 16 9 S 1030,2 0,3 0 0,0
14.11.2018 10:00:00 5,8 5,7 5,7 8,5 13,5 4 2 11 6 SW 1030,6 0,5 0 0,0
14.11.2018 09:00:00 5,3 5,2 4,8 8,5 13,5 2 1 4 2 WSW 1031,1 0,3 2 0,0
14.11.2018 08:00:00 4,5 4,4 3,4 8,6 13,5 3 1 5 3 SSW 1031,2 0,7 0 0,0
14.11.2018 07:00:00 3,4 3,3 1,3 8,7 13,5 3 2 6 3 SSW 1031,2 0,2 0 0,0
14.11.2018 06:00:00 1,5 1,4 1,4 8,9 13,5 0 0 4 2 N 1031,7 0,3 0 0,0
14.11.2018 05:00:00 1,4 1,3 1,1 9,1 13,5 3 1 4 2 SSE 1031,8 0,2 0 0,0
14.11.2018 04:00:00 1,2 1,1 0,8 9,3 13,5 0 0 4 2 N 1032,0 0,2 0 0,0
14.11.2018 03:00:00 1,2 0,9 0,8 9,5 13,5 2 1 4 2 SE 1032,2 0,9 0 0,0
14.11.2018 02:00:00 1,2 0,9 0,2 9,8 13,5 0 0 5 3 N 1032,4 0,1 0 0,0
14.11.2018 01:00:00 1,4 1,1 -0,2 10,1 13,5 2 1 6 3 SSW 1032,6 0,9 0 0,0
14.11.2018 00:00:00 2,0 1,6 -0,2 10,5 13,5 0 0 5 3 N 1032,8 0,2 0 0,0
13.11.2018 23:00:00 2,8 2,4 0,6 10,7 13,5 0 0 7 4 N 1032,8 1,1 0 0,0
13.11.2018 22:00:00 4,3 3,6 1,7 11,1 13,5 0 0 5 3 N 1032,8 19 0 0,0
13.11.2018 21:00:00 6,1 5,2 3,4 11,3 13,5 3 1 10 5 SSW 1032,3 14 0 0,0
13.11.2018 20:00:00 7,2 6,3 4,7 11,6 13,5 6 3 10 6 SSW 1032,2 20 0 0,0
13.11.2018 19:00:00 9,6 7,7 6,7 11,8 13,5 8 4 14 7 S 1031,9 20 0 0,0
13.11.2018 18:00:00 11,0 7,9 8,3 11,9 13,5 10 5 16 9 SSW 1031,3 20 0 0,0
13.11.2018 17:00:00 12,4 8,3 11,5 12,0 13,5 8 4 18 10 S 1030,6 20 23 0,0
13.11.2018 16:00:00 14,4 8,8 16,1 11,9 13,5 10 5 22 12 SSW 1030,3 20 60 0,0
13.11.2018 15:00:00 14,5 8,7 13,5 11,8 13,5 14 8 24 13 SSW 1029,8 20 25 0,0
13.11.2018 14:00:00 14,4 9,6 13,0 11,6 13,5 15 8 25 13 SSW 1029,7 20 35 0,0
13.11.2018 13:00:00 12,5 9,1 11,2 11,5 13,5 13 7 25 14 SSW 1029,4 20 0 0,0
13.11.2018 12:00:00 11,8 9,4 10,9 11,5 13,5 11 6 27 15 S 1029,5 20 0 0,0
13.11.2018 11:00:00 11,4 9,6 10,8 11,5 13,5 15 8 26 14 SW 1029,4 20 0 0,0
13.11.2018 10:00:00 11,2 10,3 10,6 11,5 13,5 14 8 25 14 S 1028,2 20 0 0,2
13.11.2018 09:00:00 10,9 10,4 10,3 11,5 13,5 8 5 15 8 SE 1028,4 20 0 1,0
13.11.2018 08:00:00 10,8 10,0 10,3 11,6 13,5 6 3 11 6 SE 1027,6 20 0 0,4
13.11.2018 07:00:00 11,3 9,9 10,6 11,6 13,5 5 3 10 5 ESE 1026,1 20 0 0,4
13.11.2018 06:00:00 12,5 9,7 12,2 11,6 13,5 6 3 16 8 ENE 1024,2 20 0 0,0
13.11.2018 05:00:00 13,6 9,4 12,0 11,6 13,5 11 6 27 15 NE 1023,4 20 0 0,2
13.11.2018 04:00:00 13,1 10,3 11,9 11,6 13,5 9 5 16 9 SSE 1022,5 20 0 0,0
13.11.2018 03:00:00 13,2 9,8 12,3 11,7 13,5 9 5 16 9 SSE 1022,1 20 0 0,0
13.11.2018 02:00:00 13,8 10,0 12,5 11,7 13,5 9 5 15 8 SSE 1021,5 20 0 0,0
13.11.2018 01:00:00 13,7 10,1 12,5 11,8 13,5 9 5 15 8 SSE 1021,1 20 0 0,0
13.11.2018 00:00:00 15,3 9,9 13,7 11,7 13,5 9 5 19 10 S 1020,6 20 0 0,0
12.11.2018 23:00:00 14,8 9,6 13,9 11,7 13,5 9 5 21 11 S 1020,1 20 0 0,0
12.11.2018 22:00:00 14,7 9,5 13,9 11,8 13,5 11 6 21 11 S 1020,0 20 0 0,0
12.11.2018 21:00:00 14,7 9,1 13,9 11,9 13,5 14 7 25 14 S 1019,7 20 0 0,0
12.11.2018 20:00:00 15,4 8,8 9,0 12,0 13,5 13 7 26 14 S 1019,2 20 0 0,0
12.11.2018 19:00:00 11,7 8,2 8,5 12,2 13,5 6 3 14 7 SSW 1019,5 20 0 0,0
12.11.2018 18:00:00 13,3 8,6 10,6 12,2 13,5 5 3 14 8 S 1018,9 20 0 0,0
12.11.2018 17:00:00 17,6 8,4 16,2 12,2 13,5 8 5 19 10 S 1017,9 20 29 0,0
12.11.2018 16:00:00 20,0 9,3 20,9 11,9 13,5 13 7 27 15 S 1017,2 20 58 0,0
12.11.2018 15:00:00 20,4 9,9 20,9 11,4 13,5 16 9 28 15 S 1016,9 20 46 0,0
12.11.2018 14:00:00 20,9 8,8 19,8 10,9 13,5 17 9 32 17 SSW 1016,8 20 56 0,0
12.11.2018 13:00:00 18,2 9,5 17,9 10,5 13,5 11 6 20 11 SSW 1016,8 20 7 0,0
12.11.2018 12:00:00 16,9 9,3 18,1 9,9 13,5 9 5 22 12 SSW 1017,0 20 42 0,0
12.11.2018 11:00:00 16,3 9,7 16,7 9,5 13,5 10 6 21 12 SSW 1016,9 20 60 0,0
12.11.2018 10:00:00 13,9 9,9 10,7 9,4 13,5 9 5 18 10 SW 1016,8 20 57 0,0
12.11.2018 09:00:00 9,5 9,0 4,0 9,5 13,5 7 4 11 6 S 1017,1 20 27 0,0
12.11.2018 08:00:00 5,6 5,3 3,2 9,7 13,5 5 3 10 5 SSE 1016,7 8 0 0,0
12.11.2018 07:00:00 5,9 5,5 3,3 9,9 13,5 4 2 9 5 ESE 1016,2 7 0 0,0
12.11.2018 06:00:00 6,2 5,8 3,6 10,1 13,5 5 3 8 5 SSE 1015,8 2,9 0 0,0
12.11.2018 05:00:00 7,2 6,1 4,8 10,3 13,5 4 2 10 5 SSE 1015,7 9 0 0,0
12.11.2018 04:00:00 8,1 7,0 5,2 10,5 13,5 9 5 11 6 W 1015,5 19 0 0,0
12.11.2018 03:00:00 9,0 8,1 5,6 10,7 13,5 4 2 9 5 SW 1015,8 12 0 0,0
12.11.2018 02:00:00 9,1 8,5 5,2 10,8 13,5 5 3 8 4 SW 1016,1 19 0 0,0
12.11.2018 01:00:00 9,5 8,7 6,7 11,0 13,5 4 2 13 7 W 1016,1 20 0 0,2
12.11.2018 00:00:00 9,2 8,7 7,2 11,2 13,5 6 3 14 8 SW 1016,5 20 0 0,0
11.11.2018 23:00:00 8,8 8,3 7,4 11,4 13,5 8 4 11 6 SW 1016,4 14 0 0,0
11.11.2018 22:00:00 9,0 7,6 7,9 11,6 13,5 8 4 16 8 SW 1016,2 19 0 0,0
11.11.2018 21:00:00 10,0 8,8 9,0 11,8 13,5 9 5 14 8 SW 1015,6 20 0 0,0
11.11.2018 20:00:00 10,7 9,0 6,6 12,0 13,5 8 4 13 7 SSW 1015,1 20 0 0,0
11.11.2018 19:00:00 9,3 8,1 6,6 12,2 13,5 6 4 13 7 W 1014,6 13 0 0,0
11.11.2018 18:00:00 12,8 10,3 10,5 12,2 13,5 4 2 11 6 S 1013,8 8 0 0,0

tt = Température de l'air
td = dewpoint
tt 5cm = Température de l'air 5cm
tt -20cm = Température de l'air -20cm
tt -100cm = Température de l'air -100cm
ff = Vitesse du vent
fx = gusts
dd = Direction du vent
ppp = reduced air pressure
vv = visibility
sd = Ensoleillement
rr = Quantités de précipitations

stations d'obs. à proximité